SA3PJN-WX Weather Reports


Display with metric or nautical units.
time (UTC)temp
F
wind
direction
speed
MPH
gust
MPH
rain 1hr
in
rain 24hr
in
rain mn
in
humidity
%
barometer
mb
20260505001852 33 195 6.0 21.0 0.00 0.00 0.00 82 956.2
20260505001322 33 219 5.0 17.0 0.00 0.00 0.00 82 956.2
20260505000822 33 33 5.0 17.0 0.00 0.00 0.00 82 956.2
20260505000322 33 249 6.0 17.0 0.00 0.00 0.00 82 956.1
20260504235822 33 151 6.0 16.0 0.00 0.00 0.00 82 956.2
20260504235252 33 100 5.0 15.0 0.00 0.00 0.00 83 956.1
20260504234722 33 174 6.0 15.0 0.00 0.00 0.00 82 956.1
20260504234222 33 84 6.0 19.0 0.00 0.00 0.00 83 956.0
20260504233722 33 90 6.0 19.0 0.00 0.00 0.00 83 956.0
20260504233222 33 137 5.0 17.0 0.00 0.00 0.00 83 956.0
20260504232722 33 119 5.0 18.0 0.00 0.00 0.00 83 956.0
20260504232222 33 196 5.0 18.0 0.00 0.00 0.00 83 956.0
20260504231722 33 133 5.0 17.0 0.00 0.00 0.00 83 956.0
20260504231152 33 97 5.0 17.0 0.00 0.00 0.00 84 956.0
20260504230652 33 112 5.0 17.0 0.00 0.00 0.00 84 956.0
20260504230152 33 156 5.0 15.0 0.00 0.00 0.00 84 956.0
20260504225652 33 101 5.0 18.0 0.00 0.00 0.00 84 956.0
20260504225122 33 122 5.0 18.0 0.00 0.00 0.00 83 956.0
20260504224622 33 171 5.0 18.0 0.00 0.00 0.00 82 956.0
20260504224122 33 144 5.0 17.0 0.00 0.00 0.00 82 956.0
20260504223622 33 91 5.0 19.0 0.00 0.00 0.00 81 956.0
20260504223052 33 53 5.0 19.0 0.00 0.00 0.00 81 956.0
20260504222522 33 209 4.0 17.0 0.00 0.00 0.00 80 956.0
20260504222022 33 2 4.0 17.0 0.00 0.00 0.00 79 956.0
20260504221522 33 127 4.0 14.0 0.00 0.00 0.00 78 956.0
20260504220952 33 91 5.0 14.0 0.00 0.00 0.00 78 956.0
20260504220452 33 118 5.0 14.0 0.00 0.00 0.00 77 955.6
20260504215952 33 119 5.0 19.0 0.00 0.00 0.00 77 955.6
20260504215452 33 133 5.0 19.0 0.00 0.00 0.00 76 956.0
20260504214952 33 39 5.0 19.0 0.00 0.00 0.00 77 955.6
20260504214452 33 15 5.0 18.0 0.00 0.00 0.00 76 955.6
20260504213951 33 5 6.0 18.0 0.00 0.00 0.00 75 955.6
20260504213451 33 155 5.0 17.0 0.00 0.00 0.00 74 955.5
20260504212951 34 171 4.0 14.0 0.00 0.00 0.00 74 956.0
20260504212421 33 349 3.0 13.0 0.00 0.00 0.00 75 956.0
20260504211921 33 46 3.0 12.0 0.00 0.00 0.00 75 956.0
20260504211421 33 67 3.0 12.0 0.00 0.00 0.00 74 956.0
20260504210851 33 91 3.0 12.0 0.00 0.00 0.00 73 956.0
20260504210351 33 37 3.0 13.0 0.00 0.00 0.00 72 956.0
20260504205851 33 59 4.0 13.0 0.00 0.00 0.00 71 956.0
20260504205351 33 102 3.0 15.0 0.00 0.00 0.00 70 956.0
20260504204821 34 114 4.0 15.0 0.00 0.00 0.00 70 956.0
20260504204321 34 183 3.0 11.0 0.00 0.00 0.00 70 956.0
20260504203821 34 136 3.0 11.0 0.00 0.00 0.00 71 956.0
20260504203321 34 132 3.0 11.0 0.00 0.00 0.00 72 956.0
20260504202751 34 114 3.0 11.0 0.00 0.00 0.00 71 956.0
20260504202251 34 109 3.0 11.0 0.00 0.00 0.00 72 956.0
20260504201751 34 81 3.0 11.0 0.00 0.00 0.00 72 956.0
20260504201251 34 93 3.0 10.0 0.00 0.00 0.00 72 956.0
20260504200751 34 81 3.0 11.0 0.00 0.00 0.00 72 956.0
20260504200221 34 117 4.0 13.0 0.00 0.00 0.00 72 956.1
20260504195721 35 92 5.0 18.0 0.00 0.00 0.00 71 956.1
20260504195221 35 149 5.0 24.0 0.00 0.00 0.00 71 956.0
20260504194721 35 145 5.0 24.0 0.00 0.00 0.00 70 956.0
20260504194151 35 102 4.0 14.0 0.00 0.00 0.00 70 956.0
20260504193651 35 132 3.0 14.0 0.00 0.00 0.00 71 956.0
20260504193151 35 60 3.0 12.0 0.00 0.00 0.00 71 956.0
20260504192621 35 71 4.0 14.0 0.00 0.00 0.00 71 956.0
20260504192121 36 21 4.0 14.0 0.00 0.00 0.00 70 956.1
20260504191621 36 106 4.0 14.0 0.00 0.00 0.00 69 956.1
20260504191051 36 354 3.0 9.0 0.00 0.00 0.00 70 956.1
20260504190551 36 83 3.0 12.0 0.00 0.00 0.00 71 956.2
20260504190051 36 5 3.0 12.0 0.00 0.00 0.00 71 956.3
20260504185551 36 111 3.0 11.0 0.00 0.00 0.00 70 956.1
20260504185051 36 116 3.0 11.0 0.00 0.00 0.00 69 956.2
20260504184551 36 122 4.0 14.0 0.00 0.00 0.00 68 956.2
20260504184051 37 116 5.0 14.0 0.00 0.00 0.00 67 956.1
20260504183550 37 111 5.0 14.0 0.00 0.00 0.00 68 956.1
20260504183050 37 87 4.0 12.0 0.00 0.00 0.00 67 956.1
20260504182550 37 21 4.0 12.0 0.00 0.00 0.00 66 956.1
20260504182021 38 82 5.0 16.0 0.00 0.00 0.00 62 956.1
20260504181520 38 91 5.0 17.0 0.00 0.00 0.00 60 956.1
20260504180950 38 130 5.0 17.0 0.00 0.00 0.00 59 956.1
20260504180450 38 154 6.0 19.0 0.00 0.00 0.00 59 956.1
20260504175950 38 97 6.0 19.0 0.00 0.00 0.00 61 956.3
20260504175450 38 108 7.0 19.0 0.00 0.00 0.00 62 956.1
20260504174950 38 96 7.0 26.0 0.00 0.00 0.00 63 956.1
20260504174450 38 79 6.0 26.0 0.00 0.00 0.00 63 956.0
20260504173950 39 62 6.0 26.0 0.00 0.00 0.00 58 956.0
20260504173450 39 160 5.0 21.0 0.00 0.00 0.00 56 956.0
20260504172950 40 111 6.0 18.0 0.00 0.00 0.00 56 956.0
20260504172450 40 128 6.0 18.0 0.00 0.00 0.00 56 956.0
20260504171920 40 88 6.0 20.0 0.00 0.00 0.00 56 956.0
20260504171420 40 135 6.0 20.0 0.00 0.00 0.00 55 956.0
20260504170920 40 63 5.0 17.0 0.00 0.00 0.00 54 956.0
20260504170420 40 63 6.0 22.0 0.00 0.00 0.00 54 956.0
20260504160250 42 66 5.0 15.0 0.00 0.00 0.00 51 956.0
20260504151119 43 125 8.0 27.0 0.00 0.00 0.00 52 956.0
20260504150619 44 109 8.0 27.0 0.00 0.00 0.00 51 956.0
20260504140849 43 98 5.0 21.0 0.00 0.00 0.00 55 956.0
20260504140319 42 135 5.0 21.0 0.00 0.00 0.00 56 956.0
20260504130749 44 80 4.0 10.0 0.00 0.00 0.00 57 956.4
20260504130249 45 357 4.0 11.0 0.00 0.00 0.00 54 956.4
20260504120248 42 164 8.0 30.0 0.00 0.00 0.00 53 956.2
20260504110718 44 25 5.0 21.0 0.00 0.00 0.00 50 956.0
20260504110218 44 69 5.0 21.0 0.00 0.00 0.00 51 956.0
20260504100517 45 150 6.0 19.0 0.00 0.00 0.00 60 956.1
20260504081717 50 162 4.0 13.0 0.00 0.00 0.00 47 955.4
20260504081217 53 97 3.0 13.0 0.00 0.00 0.00 46 955.7
20260504080717 53 46 3.0 10.0 0.00 0.00 0.00 46 955.8
20260504080217 55 80 2.0 9.0 0.00 0.00 0.00 48 955.8
20260504070146 49 104 2.0 5.0 0.00 0.00 0.00 59 955.8
20260504050716 42 331 1.0 5.0 0.00 0.00 0.00 66 955.6
20260504050146 41 37 2.0 7.0 0.00 0.00 0.00 69 955.4
20260504045646 39 55 4.0 7.0 0.00 0.00 0.00 71 955.4
20260504045146 38 56 4.0 7.0 0.00 0.00 0.00 70 955.2
20260504044646 39 68 4.0 7.0 0.00 0.00 0.00 69 955.3
20260504044146 39 44 4.0 8.0 0.00 0.00 0.00 69 955.4
20260504043616 39 42 4.0 8.0 0.00 0.00 0.00 70 955.5
20260504043046 38 50 4.0 6.0 0.00 0.00 0.00 70 955.6
20260504042546 38 57 3.0 6.0 0.00 0.00 0.00 71 955.6
20260504042046 37 65 4.0 7.0 0.00 0.00 0.00 73 956.0
20260504041546 35 72 3.0 7.0 0.00 0.00 0.00 75 956.0
20260504041046 35 68 3.0 6.0 0.00 0.00 0.00 75 956.0
20260504040546 35 55 3.0 5.0 0.00 0.00 0.00 75 956.0
20260504040046 36 73 3.0 5.0 0.00 0.00 0.00 74 956.0
20260504035546 35 54 2.0 5.0 0.00 0.00 0.00 75 956.0
20260504035046 35 57 2.0 4.0 0.00 0.00 0.00 75 956.0
20260504034546 35 67 2.0 4.0 0.00 0.00 0.00 75 956.0
20260504034046 35 62 2.0 4.0 0.00 0.00 0.00 75 956.0
20260504033546 35 68 2.0 6.0 0.00 0.00 0.00 76 956.0
20260504033046 34 67 2.0 6.0 0.00 0.00 0.00 77 956.0
20260504032546 34 65 3.0 6.0 0.00 0.00 0.00 77 956.0
20260504032015 34 83 3.0 6.0 0.00 0.00 0.00 77 956.0
20260504031515 34 63 3.0 6.0 0.00 0.00 0.00 77 956.2
20260504031016 34 59 3.0 6.0 0.00 0.00 0.00 78 956.1
20260504030515 34 65 3.0 6.0 0.00 0.00 0.00 78 956.3
20260504030015 34 33 2.0 6.0 0.00 0.00 0.00 78 956.4
20260504025446 34 23 3.0 6.0 0.00 0.00 0.00 77 956.5
20260504024945 34 14 4.0 6.0 0.00 0.00 0.00 77 956.5
20260504024445 34 22 4.0 6.0 0.00 0.00 0.00 76 956.5
20260504023945 34 15 3.0 6.0 0.00 0.00 0.00 77 956.6
20260504023445 34 285 2.0 4.0 0.00 0.00 0.00 76 956.5
20260504022945 34 262 2.0 4.0 0.00 0.00 0.00 73 957.0
20260504022445 34 310 3.0 5.0 0.00 0.00 0.00 73 957.0
20260504021945 35 309 3.0 6.0 0.00 0.00 0.00 72 957.0
20260504021445 35 29 3.0 6.0 0.00 0.00 0.00 72 957.0
20260504020945 35 60 2.0 5.0 0.00 0.00 0.00 71 957.0
20260504020445 35 4 1.0 4.0 0.00 0.00 0.00 71 957.1
20260504015945 35 278 1.0 3.0 0.00 0.00 0.00 70 957.2
20260504015445 35 336 2.0 4.0 0.00 0.00 0.00 70 957.2
20260504014915 35 19 2.0 4.0 0.00 0.00 0.00 70 957.3
20260504014415 35 7 2.0 4.0 0.00 0.00 0.00 69 957.3
20260504013845 35 6 2.0 5.0 0.00 0.00 0.00 69 957.3
20260504013345 35 12 2.0 5.0 0.00 0.00 0.00 69 957.4
20260504012845 35 18 1.0 5.0 0.00 0.00 0.00 68 957.5
20260504012315 36 38 1.0 3.0 0.00 0.00 0.00 67 957.4
20260504011815 36 83 2.0 3.0 0.00 0.00 0.00 67 957.6
20260504011315 36 40 2.0 4.0 0.00 0.00 0.00 68 957.6
20260504010815 36 22 2.0 4.0 0.00 0.00 0.00 68 957.6
20260504010315 36 335 2.0 4.0 0.00 0.00 0.00 68 957.5
20260504005815 36 318 2.0 4.0 0.00 0.00 0.00 68 958.0
20260504005315 35 279 2.0 5.0 0.00 0.00 0.00 68 958.0
20260504004815 35 273 2.0 6.0 0.00 0.00 0.00 69 957.6
20260504004315 35 257 3.0 6.0 0.00 0.00 0.00 70 958.0
20260504003815 35 299 3.0 6.0 0.00 0.00 0.00 69 958.0
20260504003245 35 291 4.0 6.0 0.00 0.00 0.00 69 958.0
20260504002745 35 293 4.0 6.0 0.00 0.00 0.00 69 958.0
20260504002245 35 294 4.0 6.0 0.00 0.00 0.00 69 958.0